Regional Weather Roundup
Issued by NWS

Home | Current Version | Previous Version | Text Only | Print | Product List | Glossary Off
Versions: 1 2 3 4 5 6 7 8 9 10 11 12 13 14 15 16 17 18 19 20 21 22 23 24 25 26 27 28 29 30 31 32 33 34 35 36 37 38 39 40 41 42 43 44 45 46 47 48 49 50

000
ASUS43 KDMX 111406
RWRIA

WEATHER ROUNDUP FOR IOWA
NATIONAL WEATHER SERVICE DES MOINES IA
800 AM CST MON DEC 11 2017

NOTE: "FAIR" INDICATES FEW OR NO CLOUDS BELOW 12,000 FEET WITH NO
SIGNIFICANT WEATHER AND/OR OBSTRUCTIONS TO VISIBILITY.

* - THESE STATIONS ARE NOT NWS STATIONS...THUS NOT UNDER NWS
QUALITY CONTROL.  THEY ALSO DO NOT REPORT WEATHER SUCH
AS PRECIPITATION OR FOG.

IAZ001>003-012>014-020>022-031>034-043>046-111500-
   NORTHWEST IOWA

CITY           SKY/WX    TMP DP  RH WIND       PRES   REMARKS
CARROLL *      CLEAR     39  23  52 NW25G33   29.80S WCI  28
CHEROKEE *     PTCLDY    38  28  66 NW16G30   29.84R WCI  30
DENISON *      CLEAR     41  25  52 NW20G33   29.87R
LE MARS *      CLOUDY    41  28  60 NW17G24   29.87S
ORANGE CITY *  CLOUDY    39  30  70 NW18G24   29.85R WCI  30
SHELDON *      CLOUDY    37  30  75 NW18G26   29.81S WCI  27
SIOUX CITY     MOCLDY    43  26  51 NW29G40   29.89R
SPENCER        LGT RAIN  36  32  85 NW29G40   29.79R WCI  23
STORM LAKE *   PTCLDY    37  27  65 NW26G37   29.81R WCI  26
$$

IAZ055>058-069>071-079>083-090>094-111500-
   SOUTHWEST IOWA

CITY           SKY/WX    TMP DP  RH WIND       PRES   REMARKS
ATLANTIC *     CLOUDY    39  19  45 W20G25    29.86R WCI  30
AUDUBON *      CLEAR     39  21  48 W15G24    29.84R WCI  31
CLARINDA *     CLOUDY    39  19  45 W13       29.91  WCI  32
COUNCIL BLFS * CLOUDY    45  21  39 NW18G31   29.91R
CRESTON *      CLOUDY    34  21  60 W15       29.84S WCI  24
HARLAN  *      CLEAR     41  23  48 NW29G36   29.90R
LAMONI         CLEAR     37  20  50 W16       29.82F WCI  28
RED OAK *      CLOUDY    41  21  45 NW15      29.90R
SHENANDOAH *   PTCLDY    43  19  39 NW15G26   29.93R
$$

IAZ047>049-059>061-072>074-084-111500-
   CENTRAL IOWA

CITY           SKY/WX    TMP DP  RH WIND       PRES   REMARKS
AMES           CLOUDY    33  24  69 W15       29.75F WCI  23
ANKENY *       CLOUDY    36  23  60 W10       29.78F WCI  28
BOONE *        CLEAR     36  21  55 W17G23    29.74F WCI  25
CHARITON *     PTCLDY    37  23  56 W13       29.79S WCI  29
DES MOINES     CLOUDY    32  22  66 W6        29.78F WCI  26
GRINNELL*      CLOUDY    31  25  76 SW8       29.74F WCI  24
KNOXVILLE *    CLOUDY    36  23  60 W15       29.75F WCI  26
MARSHALLTOWN   CLOUDY    27  22  81 SW9       29.74F WCI  18
NEWTON *       CLOUDY    32  25  74 SW12      29.75F WCI  23
PELLA *        CLOUDY    33  25  70 W6        29.77F WCI  28
PERRY *          N/A     36  19  50 W21G30    29.79R WCI  25
$$

IAZ004>006-015-016-023>025-035-036-111500-
   NORTH CENTRAL IOWA

CITY           SKY/WX    TMP DP  RH WIND       PRES   REMARKS
ALGONA *       MOCLDY    36  27  69 NW15G23   29.73F WCI  26
CLARION *      PTCLDY    28  23  80 SW8       29.73F WCI  20
ESTHERVILLE    CLOUDY    35  27  72 NW22      29.74S WCI  23
FORT DODGE *   CLEAR     37  23  56 W13G22    29.76S WCI  29
MASON CITY     CLOUDY    33  24  69 SW9       29.72F WCI  25
FOREST CITY *  CLOUDY    32  27  80 W5        29.71F WCI  27
WEBSTER CITY * CLEAR     34  21  60 W17       29.72S WCI  23
IOWA FALLS *     N/A     29  23  77 W5        29.74F WCI  24
$$

IAZ007>011-017>019-026>030-037>042-050>054-066-111500-
   NORTHEAST IOWA

CITY           SKY/WX    TMP DP  RH WIND       PRES   REMARKS
CEDAR RAPIDS   PTCLDY    30  25  81 S6        29.75F WCI  24
CHARLES CITY * MOCLDY    28  27  93 S7        29.73F WCI  21
CLINTON *      CLOUDY    28  25  88 E10       29.83F WCI  19
DECORAH *      MOCLDY    27  23  86 VRB6      29.72F WCI  20
DUBUQUE        CLOUDY    27  23  85 S9        29.77F WCI  18
MONTICELLO *   PTCLDY    30  25  80 SE9       29.77F WCI  22
OELWEIN *      CLOUDY    27  27 100 SE9       29.75F WCI  17
WATERLOO       CLOUDY    26  21  81 S3        29.74F
$$

IAZ064-065-067-068-078-111500-
   EAST CENTRAL IOWA

CITY           SKY/WX    TMP DP  RH WIND       PRES   REMARKS
DAVENPORT      CLOUDY    32  24  72 SE12      29.82F WCI  23
IOWA CITY      PTCLDY    31  25  78 SE6       29.79F WCI  25
MT. PLEASANT * CLOUDY    31  25  78 S10       29.78F WCI  23
MUSCATINE *    PTCLDY    32  25  74 S10       29.79F WCI  24
QUAD CITIES    MOCLDY    34  25  69 SE8       29.81F WCI  27
$$

IAZ062-063-075>077-085>089-095>099-111500-
   SOUTHEAST IOWA

CITY           SKY/WX    TMP DP  RH WIND       PRES   REMARKS
BURLINGTON     PTCLDY    32  27  81 S8        29.81F WCI  25
FAIRFIELD *    CLOUDY    32  25  74 S9        29.77F WCI  24
FORT MADISON * CLOUDY    34  27  75 S9        29.81F WCI  26
KEOKUK *       PTCLDY    36  27  69 S6        29.81F WCI  31
OSKALOOSA *      N/A     29  25  84 SW7       29.77F WCI  22
OTTUMWA        MOCLDY    32  25  75 S10       29.76F WCI  24
WASHINGTON *   CLOUDY    32  27  80 S10       29.78F WCI  24
$$

ABBREVIATIONS USED IN REMARKS
   TC - TEMPERATURES IN CELSIUS
  WCI - WIND CHILL INDEX
   HX - HEAT INDEX
  VSB - VISIBILITY
$$





USA.gov is the U.S. government's official web portal to all federal, state and local government web resources and services.